Needles, CA

11:50 PM PDT on April 21, 2018 (GMT -0700)
Needles

Weather History for KEED - April, 2014

Change the Weather History Date:

Wednesday, April 9, 2014

  Actual Average Record
Temperature  
Mean Temperature 81 °F 70 °F  
Max Temperature 100 °F 83 °F 104 °F (1989)
Min Temperature 64 °F 56 °F 33 °F (1909)
Degree Days  
Heating Degree Days 0    
Cooling Degree Days 16    
Growing Degree Days 31 (Base 50)    
Moisture  
Dew Point 6 °F    
Average Humidity 7    
Maximum Humidity 13    
Minimum Humidity 4    
Precipitation  
Precipitation 0.00 in 0.01 in 0.13 in (1978)
Month to date precipitation 0.09  
Year to date precipitation 2.13  
Sea Level Pressure  
Sea Level Pressure 29.86 in    
Wind  
Wind Speed 5 mph (West)    
Max Wind Speed 12 mph    
Max Gust Speed 16 mph    
Visibility 10 miles    
Events      
T = Trace of Precipitation, MM = Missing Value Source: NWS Daily Summary

Daily Weather History Graph

Daily Weather History Graph

Search for Another Location

Airport or City:

Astronomy

Apr. 09, 2014 Rise Set
Actual Time 6:14 AM PDT 7:06 PM PDT
Civil Twilight 5:48 AM PDT 7:31 PM PDT
Nautical Twilight 5:18 AM PDT 8:02 PM PDT
Astronomical Twilight 4:47 AM PDT 8:33 PM PDT
Moon 2:09 PM PDT (4/9) 2:53 AM PDT (4/9)
Length of Visible Light 13h 43m
Length of Day
12h 51m
Waxing Gibbous, 72% of the Moon is Illuminated
Apr 9
Waxing Gibbous
Apr 15
Full
Apr 22
Last Quarter
Apr 28
New
May 6
First Quarter

Hourly Weather History & Observations

Time (PDT) Temp. Dew Point Humidity Pressure Visibility Wind Dir Wind Speed Gust Speed Precip Events Conditions
12:56 AM 75.0 °F 10.9 °F 9% 29.92 in 10.0 mi Calm Calm - N/A   Clear
1:56 AM 70.0 °F 10.0 °F 10% 29.91 in 10.0 mi West 8.1 mph - N/A   Clear
2:56 AM 68.0 °F 10.0 °F 11% 29.90 in 10.0 mi WNW 6.9 mph - N/A   Clear
3:56 AM 68.0 °F 10.0 °F 11% 29.89 in 10.0 mi NW 6.9 mph - N/A   Clear
4:56 AM 66.0 °F 10.9 °F 12% 29.90 in 10.0 mi NNW 3.5 mph - N/A   Clear
5:56 AM 64.9 °F 10.9 °F 12% 29.91 in 10.0 mi NW 4.6 mph - N/A   Clear
6:56 AM 64.9 °F 12.0 °F 13% 29.93 in 10.0 mi NW 5.8 mph - N/A   Clear
7:56 AM 69.1 °F 12.0 °F 11% 29.94 in 10.0 mi Calm Calm - N/A   Clear
8:56 AM 73.9 °F 12.0 °F 9% 29.95 in 10.0 mi ENE 3.5 mph - N/A   Clear
9:56 AM 79.0 °F 12.9 °F 8% 29.95 in 10.0 mi Calm Calm - N/A   Clear
10:56 AM 86.0 °F 12.9 °F 7% 29.93 in 10.0 mi East 3.5 mph - N/A   Clear
11:56 AM 91.0 °F 16.0 °F 6% 29.91 in 10.0 mi Variable 4.6 mph - N/A   Clear
12:56 PM 93.9 °F 14.0 °F 5% 29.88 in 10.0 mi East 6.9 mph - N/A   Clear
1:56 PM 96.1 °F 6.1 °F 4% 29.86 in 10.0 mi Variable 5.8 mph - N/A   Clear
2:56 PM 98.1 °F -0.9 °F 4% 29.82 in 10.0 mi North - - N/A   Clear
3:56 PM 98.1 °F -5.1 °F 4% 29.80 in 10.0 mi West 6.9 mph 16.1 mph N/A   Clear
4:56 PM 97.0 °F -7.1 °F 4% 29.79 in 10.0 mi SW 6.9 mph - N/A   Clear
5:56 PM 96.1 °F -9.9 °F 4% 29.78 in 10.0 mi SW 9.2 mph - N/A   Clear
6:56 PM 91.9 °F -11.0 °F 4% 29.78 in 10.0 mi SW 5.8 mph - N/A   Clear
7:56 PM 84.9 °F -7.1 °F 4% 29.79 in 10.0 mi WSW 8.1 mph - N/A   Clear
8:56 PM 86.0 °F 1.0 °F 4% 29.80 in 10.0 mi West 11.5 mph - N/A   Clear
9:56 PM 86.0 °F 6.1 °F 5% 29.80 in 10.0 mi West 11.5 mph - N/A   Clear
10:56 PM 84.9 °F 7.0 °F 5% 29.80 in 10.0 mi West 11.5 mph - N/A   Clear
11:56 PM 82.0 °F 9.0 °F 6% 29.80 in 10.0 mi East 9.2 mph - N/A   Clear